Regional Weather Roundup
Issued by NWS

Home | Current Version | Previous Version | Graphics & Text | Print | Product List | Glossary On
Versions: 1 2 3 4 5 6 7 8 9 10 11 12 13 14 15 16 17 18 19 20 21 22 23 24 25 26 27 28 29 30 31 32 33 34 35 36 37 38 39 40 41 42 43 44 45 46 47 48 49 50
520
ASUS43 KBIS 200102
RWRND

NORTH DAKOTA REGIONAL WEATHER ROUNDUP
NATIONAL WEATHER SERVICE BISMARCK ND
800 PM CDT SAT AUG 19 2017

NOTE: "FAIR" INDICATES FEW OR NO CLOUDS BELOW 12,000 FEET WITH NO
SIGNIFICANT WEATHER AND/OR OBSTRUCTIONS TO VISIBILITY.


NDZ001>003-009>011-017-200200-
NORTHWEST NORTH DAKOTA

CITY           SKY/WX    TMP DP  RH WIND       PRES   REMARKS
WILLISTON      CLOUDY    76  43  30 NW18      29.86R
MINOT          CLEAR     79  53  40 W16G28    29.74R
MINOT AFB      CLEAR     79  52  39 NW23G30   29.72R
$$

NDZ018>021-031>035-040>046-200200-
SOUTHWEST NORTH DAKOTA

CITY           SKY/WX    TMP DP  RH WIND       PRES   REMARKS
BISMARCK       PTCLDY    84  67  56 SW5       29.74S
DICKINSON      PTCLDY    77  50  38 NW12      29.84R
GARRISON         N/A     78  54  43 NW18G28   29.76R
HETTINGER ARPT PTCLDY    77  41  27 NW9       29.87R
$$

NDZ004>008-012>016-024-026-027-054-200200-
NORTHEAST NORTH DAKOTA

CITY           SKY/WX    TMP DP  RH WIND       PRES   REMARKS
GRAND FORKS    PTCLDY    79  65  62 S13       29.71S
GRND FRKS AFB  CLEAR     77  60  55 S9        29.72S
DEVILS LAKE    CLOUDY    80  65  59 S9        29.69S
$$

NDZ022-023-025-028>030-036>039-047>053-200200-
SOUTHEAST NORTH DAKOTA

CITY           SKY/WX    TMP DP  RH WIND       PRES   REMARKS
FARGO          PTCLDY    76  62  62 S15G23    29.75F
JAMESTOWN      PTCLDY    75  64  68 S8        29.74S
$$





USA.gov is the U.S. government's official web portal to all federal, state and local government web resources and services.